Location: Unspecified
(0.0000°N, 0.0000°E)
Time: 02:05:58
(UTC+02:00)

OPAL - Visible Passes

Search period start: 08 July 2015 00:00
Search period end: 18 July 2015 00:00
Orbit: 743 x 796 km, 100.2° (Epoch: 07 July)

Date Brightness Start Highest point End Pass type
(mag) Time Alt. Az. Time Alt. Az. Time Alt. Az.
08 Jul 9.7 22:05:15 10° NNE 22:05:40 12° NNE 22:05:40 12° NNE visible
09 Jul 10.3 23:09:43 10° NNW 23:09:57 11° NNW 23:09:57 11° NNW visible
10 Jul 9.9 22:33:19 10° N 22:33:57 14° N 22:33:57 14° N visible
12 Jul 10.3 23:02:05 10° NNW 23:02:14 11° NNW 23:02:14 11° NNW visible
13 Jul 10.0 22:26:05 10° NNE 22:26:13 11° NNE 22:26:13 11° NNE visible
